When you browse on this site, cookies collect data to enhance your experience and personalize the content and advertising you see.
Visit our Privacy Policy to learn more. By continuing to use the site, you agree to this use of cookies and data.
  • en Suisse
  • Liste des pays
  • À 7 jours
  • Température de l'eau
  • Carte satellitaire
  • Carte météo
  • Widgets météo
  • user-avatar
    Se connecter

    Météo par heure à Pinang

    Ce jour, 24 Juin, Lundi

    Heure Température Précipitation Vent Pression Humidité
    00:00 +27°C° 0 mm 1 m/s 754 mmHg 87%
    01:00 +26°C° 0 mm 1 m/s 754 mmHg 85%
    02:00 +26°C° 0 mm 1 m/s 754 mmHg 85%
    03:00 +26°C° 0 mm 1 m/s 754 mmHg 86%
    04:00 +26°C° 0 mm 1 m/s 753 mmHg 87%
    05:00 +26°C° 0 mm 1 m/s 754 mmHg 86%
    06:00 +27°C° 0 mm 1 m/s 754 mmHg 85%
    07:00 +27°C° 0 mm 1 m/s 755 mmHg 85%
    08:00 +29°C° 0.1 mm 1 m/s 755 mmHg 78%
    09:00 +31°C° 0.1 mm 2 m/s 755 mmHg 70%
    10:00 +34°C° 0.1 mm 2 m/s 755 mmHg 63%
    11:00 +34°C° 0.1 mm 2 m/s 754 mmHg 61%
    12:00 +35°C° 0.1 mm 2 m/s 754 mmHg 59%
    13:00 +35°C° 0 mm 2 m/s 754 mmHg 58%
    14:00 +35°C° 0.5 mm 2 m/s 754 mmHg 61%
    15:00 +34°C° 0.5 mm 2 m/s 753 mmHg 63%
    16:00 +34°C° 0.5 mm 2 m/s 752 mmHg 66%
    17:00 +32°C° 0 mm 1 m/s 753 mmHg 71%
    18:00 +30°C° 0 mm 1 m/s 753 mmHg 77%
    19:00 +29°C° 0 mm 1 m/s 754 mmHg 82%
    20:00 +29°C° 0 mm 1 m/s 754 mmHg 84%
    21:00 +28°C° 0 mm 1 m/s 754 mmHg 86%
    22:00 +28°C° 0 mm 2 m/s 755 mmHg 88%
    23:00 +28°C° 0 mm 1 m/s 755 mmHg 88%

    Demain, 25 Juin, Mardi

    Heure Température Précipitation Vent Pression Humidité
    00:00 +27°C° 0 mm 1 m/s 755 mmHg 88%
    01:00 +27°C° 0 mm 1 m/s 755 mmHg 87%
    02:00 +27°C° 0 mm 1 m/s 754 mmHg 88%
    03:00 +27°C° 0 mm 1 m/s 754 mmHg 88%
    04:00 +27°C° 0 mm 1 m/s 754 mmHg 88%
    05:00 +27°C° 0.2 mm 1 m/s 754 mmHg 88%
    06:00 +27°C° 0.2 mm 1 m/s 755 mmHg 88%
    07:00 +27°C° 0.2 mm 1 m/s 755 mmHg 88%
    08:00 +29°C° 0.3 mm 1 m/s 755 mmHg 80%
    09:00 +31°C° 0.3 mm 1 m/s 755 mmHg 73%
    10:00 +34°C° 0.3 mm 2 m/s 755 mmHg 66%
    11:00 +34°C° 0.7 mm 2 m/s 755 mmHg 67%
    12:00 +34°C° 0.7 mm 2 m/s 755 mmHg 67%
    13:00 +33°C° 0.7 mm 1 m/s 755 mmHg 68%
    14:00 +33°C° 2.6 mm 1 m/s 754 mmHg 73%
    15:00 +32°C° 2.6 mm 1 m/s 753 mmHg 77%
    16:00 +31°C° 2.6 mm 1 m/s 753 mmHg 82%
    17:00 +30°C° 0.2 mm 1 m/s 753 mmHg 85%
    18:00 +29°C° 0.2 mm 1 m/s 754 mmHg 88%
    19:00 +28°C° 0.2 mm 1 m/s 754 mmHg 91%
    20:00 +28°C° 0 mm 1 m/s 755 mmHg 91%
    21:00 +28°C° 0 mm 1 m/s 755 mmHg 92%
    22:00 +28°C° 0 mm 1 m/s 756 mmHg 93%
    23:00 +28°C° 0 mm 1 m/s 755 mmHg 93%

    Après-demain, 26 Juin, Mercredi

    Heure Température Précipitation Vent Pression Humidité
    00:00 +28°C° 0 mm 1 m/s 755 mmHg 93%
    01:00 +27°C° 0 mm 1 m/s 755 mmHg 93%
    02:00 +27°C° 0 mm 1 m/s 755 mmHg 93%
    03:00 +27°C° 0 mm 1 m/s 754 mmHg 94%
    04:00 +26°C° 0 mm 1 m/s 754 mmHg 95%
    05:00 +27°C° 0 mm 1 m/s 754 mmHg 94%
    06:00 +27°C° 0 mm 1 m/s 754 mmHg 93%
    07:00 +27°C° 0 mm 1 m/s 755 mmHg 92%
    08:00 +29°C° 0 mm 1 m/s 755 mmHg 83%
    09:00 +31°C° 0 mm 1 m/s 755 mmHg 74%
    10:00 +34°C° 0 mm 2 m/s 755 mmHg 65%
    11:00 +34°C° 0.2 mm 2 m/s 755 mmHg 63%
    12:00 +35°C° 0.2 mm 2 m/s 754 mmHg 62%
    13:00 +35°C° 0.2 mm 2 m/s 754 mmHg 60%
    14:00 +33°C° 3 mm 1 m/s 753 mmHg 68%
    15:00 +32°C° 3 mm 1 m/s 752 mmHg 76%
    16:00 +31°C° 3 mm 1 m/s 752 mmHg 84%
    17:00 +30°C° 2.8 mm 1 m/s 752 mmHg 86%
    18:00 +29°C° 2.8 mm 1 m/s 753 mmHg 88%
    19:00 +28°C° 2.8 mm 1 m/s 753 mmHg 91%
    20:00 +28°C° 1.5 mm 1 m/s 754 mmHg 91%
    21:00 +27°C° 1.5 mm 1 m/s 754 mmHg 92%
    22:00 +27°C° 1.5 mm 1 m/s 755 mmHg 92%
    23:00 +27°C° 0 mm 1 m/s 755 mmHg 92%

    27 Juin, Jeudi

    Heure Température Précipitation Vent Pression Humidité
    00:00 +27°C° 0 mm 1 m/s 754 mmHg 91%
    01:00 +27°C° 0 mm 1 m/s 754 mmHg 90%
    02:00 +27°C° 0 mm 1 m/s 754 mmHg 91%
    03:00 +24°C° 0 mm 0 m/s 754 mmHg 91%
    04:00 +24°C° 0 mm 0 m/s 753 mmHg 92%
    05:00 +24°C° 0 mm 0 m/s 754 mmHg 92%
    06:00 +24°C° 0 mm 0 m/s 754 mmHg 92%
    07:00 +25°C° 0 mm 0 m/s 754 mmHg 92%
    08:00 +27°C° 0 mm 0 m/s 755 mmHg 82%
    09:00 +29°C° 0 mm 0 m/s 755 mmHg 72%
    10:00 +31°C° 0 mm 0 m/s 755 mmHg 62%
    11:00 +33°C° 0.2 mm 1 m/s 755 mmHg 61%
    12:00 +34°C° 0.2 mm 1 m/s 754 mmHg 59%
    13:00 +34°C° 0.2 mm 1 m/s 754 mmHg 58%
    14:00 +33°C° 1.4 mm 1 m/s 753 mmHg 66%
    15:00 +32°C° 1.4 mm 1 m/s 753 mmHg 73%
    16:00 +31°C° 1.4 mm 1 m/s 752 mmHg 80%
    17:00 +30°C° 0.2 mm 1 m/s 752 mmHg 84%
    18:00 +29°C° 0.2 mm 1 m/s 753 mmHg 88%
    19:00 +28°C° 0.2 mm 1 m/s 753 mmHg 91%
    20:00 +28°C° 0 mm 1 m/s 754 mmHg 91%
    21:00 +28°C° 0 mm 1 m/s 754 mmHg 91%
    22:00 +27°C° 0 mm 1 m/s 754 mmHg 91%
    23:00 +27°C° 0 mm 1 m/s 754 mmHg 92%

    28 Juin, Vendredi

    Heure Température Précipitation Vent Pression Humidité
    00:00 +27°C° 0 mm 1 m/s 754 mmHg 92%
    01:00 +27°C° 0 mm 1 m/s 754 mmHg 92%
    02:00 +25°C° 0 mm 0 m/s 753 mmHg 93%
    03:00 +24°C° 0 mm 0 m/s 753 mmHg 93%
    04:00 +24°C° 0 mm 0 m/s 753 mmHg 94%
    05:00 +24°C° 0 mm 0 m/s 753 mmHg 93%
    06:00 +25°C° 0 mm 0 m/s 754 mmHg 92%
    07:00 +27°C° 0 mm 1 m/s 754 mmHg 91%
    08:00 +29°C° 0 mm 1 m/s 754 mmHg 81%
    09:00 +31°C° 0 mm 1 m/s 755 mmHg 71%
    10:00 +33°C° 0 mm 1 m/s 755 mmHg 61%
    11:00 +33°C° 0.1 mm 1 m/s 754 mmHg 61%
    12:00 +33°C° 0.1 mm 1 m/s 754 mmHg 61%
    13:00 +35°C° 0.1 mm 2 m/s 753 mmHg 61%
    14:00 +34°C° 0.6 mm 2 m/s 753 mmHg 66%
    15:00 +32°C° 0.6 mm 2 m/s 752 mmHg 71%
    16:00 +32°C° 0.6 mm 2 m/s 752 mmHg 77%
    17:00 +31°C° 0.5 mm 2 m/s 752 mmHg 81%
    18:00 +29°C° 0.5 mm 1 m/s 752 mmHg 86%
    19:00 +28°C° 0.5 mm 1 m/s 753 mmHg 91%
    20:00 +28°C° 0.2 mm 1 m/s 753 mmHg 91%
    21:00 +28°C° 0.2 mm 1 m/s 754 mmHg 92%
    22:00 +27°C° 0.2 mm 1 m/s 754 mmHg 92%
    23:00 +27°C° 0 mm 1 m/s 754 mmHg 92%

    29 Juin, Samedi

    Heure Température Précipitation Vent Pression Humidité
    00:00 +27°C° 0 mm 1 m/s 754 mmHg 93%
    01:00 +27°C° 0 mm 1 m/s 753 mmHg 93%
    02:00 +27°C° 0 mm 1 m/s 753 mmHg 94%
    03:00 +26°C° 0 mm 1 m/s 753 mmHg 94%
    04:00 +26°C° 0 mm 1 m/s 752 mmHg 95%
    05:00 +26°C° 0 mm 1 m/s 753 mmHg 94%
    06:00 +27°C° 0 mm 1 m/s 753 mmHg 93%
    07:00 +27°C° 0 mm 1 m/s 754 mmHg 93%
    08:00 +29°C° 0 mm 1 m/s 754 mmHg 84%
    09:00 +31°C° 0 mm 1 m/s 754 mmHg 75%
    10:00 +33°C° 0 mm 1 m/s 754 mmHg 67%
    11:00 +32°C° 0.8 mm 2 m/s 754 mmHg 70%
    12:00 +32°C° 0.8 mm 2 m/s 753 mmHg 73%
    13:00 +32°C° 0.8 mm 2 m/s 753 mmHg 76%
    14:00 +32°C° 1.9 mm 2 m/s 752 mmHg 77%
    15:00 +32°C° 1.9 mm 1 m/s 752 mmHg 79%
    16:00 +31°C° 1.9 mm 1 m/s 752 mmHg 80%
    17:00 +30°C° 0.1 mm 1 m/s 752 mmHg 83%
    18:00 +29°C° 0.1 mm 1 m/s 752 mmHg 86%
    19:00 +29°C° 0.1 mm 1 m/s 753 mmHg 89%
    20:00 +28°C° 0 mm 1 m/s 753 mmHg 90%
    21:00 +28°C° 0 mm 1 m/s 754 mmHg 91%
    22:00 +28°C° 0 mm 1 m/s 754 mmHg 91%
    23:00 +28°C° 0 mm 1 m/s 754 mmHg 91%
    Voir plus